Regional Weather Roundup
Issued by NWS

Home | Current Version | Previous Version | Text Only | Print | Product List | Glossary On
Versions: 1 2 3 4 5 6 7 8 9 10 11 12 13 14 15 16 17 18 19 20 21 22 23 24 25 26 27
000
ASUS46 KPQR 252310
RWROR

OREGON REGIONAL WEATHER ROUNDUP
NATIONAL WEATHER SERVICE PORTLAND OR
300 PM PST SAT FEB 25 2017

NOTE: "FAIR" INDICATES FEW OR NO CLOUDS BELOW 12,000 FEET WITH
NO SIGNIFICANT WEATHER AND/OR OBSTRUCTIONS TO VISIBILITY.

ORZ001>013-260000-
NORTHWEST OREGON


CITY           SKY/WX    TMP DP  RH WIND       PRES   REMARKS
ASTORIA        MOSUNNY   45  33  63 W9        30.18F
NEWPORT        SUNNY     46  36  66 NW7       30.22F
PORTLAND       PTSUNNY   46  32  58 CALM      30.17F
VANCOUVER WA   CLOUDY    47  32  56 CALM      30.16F
SCAPPOOSE      PTSUNNY   45  36  70 VRB3      30.16F
HILLSBORO      CLOUDY    47  33  58 VRB5      30.15F
AURORA         SUNNY     47  33  58 W5        30.17F
MCMINNVILLE    PTSUNNY   47  35  63 W6        30.17F
SALEM          MOSUNNY   47  34  60 S8        30.15F
CORVALLIS        N/A     46  36  66 CALM      30.19F
EUGENE         MOSUNNY   47  37  68 VRB3      30.18F
$$

ORZ021-028-260000-
SOUTHWEST OREGON


CITY           SKY/WX    TMP DP  RH WIND       PRES   REMARKS
NORTH BEND     SUNNY     48  39  71 N12       30.19F
BROOKINGS      SUNNY     51  35  54 NW13      30.13F
ROSEBURG       SUNNY     45  34  65 CALM      30.17F
SEXTON SUMMIT  CLOUDY    32  30  92 CALM      30.04F
MEDFORD        MOSUNNY   48  31  51 CALM      30.11F
$$

ORZ014>016-041-260000-
COLUMBIA GORGE


CITY           SKY/WX    TMP DP  RH WIND       PRES   REMARKS
TROUTDALE      SUNNY     48  32  53 VRB3      30.16F
THE DALLES     SUNNY     50  27  40 NW17G25   30.09F
$$

ORZ029>031-041-044-049-050-061>064-502-503-505>511-260000-
EASTERN OREGON


CITY           SKY/WX    TMP DP  RH WIND       PRES   REMARKS
REDMOND        SUNNY     42  17  36 W10       30.02F
BEND           MOSUNNY   39  16  38 W5        30.01F
PRINEVILLE     PTSUNNY   41  19  42 CALM      30.02F
KLAMATH FALLS  MOSUNNY   35  23  61 VRB3      30.04F
LAKEVIEW       SUNNY     34  16  47 S8        30.03F WCI  27
HERMISTON      MOSUNNY   47  25  42 W10       30.06F
PENDLETON      SUNNY     42  27  55 W13       30.04F
JOHN DAY       MOSUNNY   39  17  42 W8        30.00F WCI  33
MEACHAM        LGT SNOW  30  20  66 VRB3      29.98F
LA GRANDE      MOSUNNY   39  19  45 W9        30.00F WCI  33
BAKER CITY     SUNNY     36  17  46 E7        29.99F WCI  30
BURNS          SUNNY     30  19  63 S6        30.01F WCI  24
ROME             N/A     32  21  64 SE9       30.02F WCI  24
ONTARIO        SUNNY     36  22  56 NW3       30.09F
$$




USA.gov is the U.S. government's official web portal to all federal, state and local government web resources and services.